Погода в Сорокабе

Бразилия     23°29′50″S   47°27′47″W
темп.,
°C
ветер,
м/с
пор.,
м/с
влажн.,
%
обл.,
%
осадки,
мм/ч
давл.,
гПа
погр.,
м
27 февраля, сб
сб2700:00+19юв38874 0.5 1014315
03:00+19юв23892 0.5 1013116
06:00+18юв12897 0.0 101479
09:00+23в12688 0.1 1015674
12:00+28ссз11538 2.4 10141277
15:00+27ююв325934 5.8 10121048
18:00+23юв6107851 8.9 1012462
21:00+21юв5108675 14.6 1014425
28 февраля, вс
вс2800:00+21вюв3586100 1.5 1014269
03:00+20юв2384100 1.7 1013163
06:00+21в2481100 0.0 1013157
09:00+24св366491 0.0 1014823
12:00+26ссв465970 2.3 10141235
15:00+28ссз235259 3.8 10121465
18:00+25ююв226742 2.8 1011592
21:00+22юв488054 3.6 1013264
1 марта, пн
пн100:00+21вюв358088 0.0 1013188
03:00+20в238051 0.0 1012121
06:00+20св247998 0.0 1013137
09:00+24ссв477077 0.0 1013589
12:00+27с565926 1.5 10121238
15:00+29ссз445324 2.8 10101492
18:00+26ссз236548 0.9 1010460
21:00+24юв126974 2.7 1012149
2 марта, вт
вт200:00+22вюв127469 0.0 101389
03:00+21вюв117785 0.0 101253
06:00+21всв1278100 0.0 101377
09:00+24ссв4673100 0.0 1014529
12:00+28с465860 0.0 10141330
15:00+29ссз455769 0.1 10121328
18:00+26ссз2370100 4.1 1011488
21:00+24всв237498 10.6 1014158
3 марта, ср
ср300:00+23всв1176100 0.3 101574
03:00+22зсз1282100 1.9 1014159
06:00+21ю1285100 5.1 101555
09:00+22с4978100 7.0 1017535
12:00+27ссз465872 0.0 10161286
15:00+28ссз235669 0.0 10131382
18:00+25з2476100 2.1 1013233
21:00+23ююз1175100 3.8 101588